Location: Forstheim
(48.8988°N, 7.7141°E)
Time: 11:49:38
(UTC+00:00)

Daily predictions for brighter satellites

Satellite Brightness Start Highest point End
(mag) Time Altitude Azimuth Time Altitude Azimuth Time Altitude Azimuth
SL-24 R/B 4.4 16:45:30 10° SSE 16:50:03 82° ENE 16:55:09 10° NNW
Cosmos 1626 Rocket 4.1 16:46:32 10° SSE 16:50:36 38° E 16:54:44 10° NNE
Cosmos 2263 Rocket 3.9 16:47:34 10° WSW 16:52:22 27° NW 16:57:10 10° NNE
Cosmos 923 Rocket 4.1 16:47:46 10° NNW 16:53:09 87° WSW 16:58:27 10° SSE
Cosmos 1898 Rocket 4.0 16:48:54 10° S 16:53:45 40° ESE 16:58:36 10° NE
CZ-4C R/B 2.8 16:52:30 10° NNE 16:55:42 83° WNW 16:58:55 10° SSW
TELKOM 3 2.7 16:53:56 10° W 16:56:02 62° N 16:58:16 10° E
Cosmos 1680 Rocket 3.5 16:52:10 10° NNW 16:57:26 80° ENE 17:02:39 10° SSE
Nadezhda 4 Rocket 4.0 16:53:59 10° S 17:00:08 67° E 17:06:15 10° NNE
Meteor 2-10 Rocket 4.1 16:54:52 10° NNW 17:00:13 66° W 17:05:20 10° S
NOAA 12 4.5 16:57:36 10° S 17:02:49 71° WSW 17:08:05 10° NNW
CZ-4B R/B 2.3 17:01:20 10° NE 17:04:11 27° E 17:06:58 10° SSE
Landsat 5 3.6 17:01:33 10° N 17:05:25 71° WNW 17:09:13 10° SSW
MOS 1 Rocket 4.0 17:02:11 10° NE 17:05:51 27° E 17:09:33 10° SSE
CZ-2D R/B 3.8 17:02:33 10° SE 17:06:05 37° ENE 17:09:39 10° N
Cosmos-2242 3.9 17:05:16 10° NNE 17:08:56 27° ENE 17:12:36 10° SE
NOAA 11 4.4 17:04:40 10° SSE 17:10:11 80° WSW 17:15:43 10° NNW
NOSS 3-1 (C) 4.2 17:04:05 10° NW 17:11:29 86° SW 17:20:10 10° SE
COSMO-SKYMED 1 3.1 17:09:14 10° NNE 17:13:19 38° E 17:17:22 10° SSE
BREEZE-M DEB (TANK) 1.6 17:12:55 10° W 17:15:14 77° N 17:17:14 13° E
Cosmos 1937 Rocket 3.9 17:11:21 10° S 17:16:23 45° ESE 17:21:27 10° NNE
Aureole 3 2.9 17:13:43 10° NNW 17:16:50 71° W 17:19:46 10° S
Cosmos 1758 Rocket 4.4 17:13:27 10° SSE 17:17:21 30° E 17:21:18 10° NNE
Okean 1-7 Rocket 4.2 17:13:47 10° SSW 17:18:19 64° WNW 17:22:53 10° N
USA 290 2.7 17:18:02 10° N 17:21:03 37° ENE 17:24:02 10° SE
NOSS 2-1 (C) 2.8 17:20:52 10° SW 17:24:11 86° SE 17:27:19 13° NE
Cosmos 1833 Rocket 2.7 17:19:20 10° NNW 17:24:55 60° ENE 17:30:28 10° SE
H-2A R/B 2.4 17:23:51 10° SE 17:28:34 40° ENE 17:33:26 10° N
Meteor 1-21 Rocket 4.3 17:24:23 10° SSW 17:29:56 86° WNW 17:35:35 10° N
NOSS 2-1 (D) 2.9 17:26:50 10° SW 17:30:08 83° NW 17:33:06 14° NE
H-2A R/B 2.6 17:26:13 10° N 17:30:34 63° WNW 17:34:48 10° SSW
Cosmos 1939 Rocket 3.0 17:26:43 10° S 17:30:48 79° WSW 17:34:50 10° NNW
Helios 1A Rocket 3.7 17:27:32 10° SE 17:31:09 30° ENE 17:34:47 10° N
Cosmos 2344 4.3 17:22:15 10° NW 17:31:19 79° NE 17:44:01 10° SE
USA 229 DEB 4.0 17:25:41 10° NW 17:32:59 86° SW 17:40:41 10° SE
USA 229 4.0 17:25:47 10° NW 17:33:06 86° SW 17:40:48 10° SE
Cosmos 389 Rocket 4.3 17:30:52 10° NNE 17:32:01 14° NE 17:32:01 14° NE
Cosmos 1602 Rocket 3.5 17:29:43 10° S 17:34:03 77° E 17:38:29 10° NNE
SeaSat 1 4.0 17:29:44 10° NNE 17:34:05 32° NW 17:38:25 10° WSW
Cosmos 44 3.7 17:29:24 10° SW 17:34:14 66° NW 17:39:26 10° NE
CZ-3B R/B 1.9 17:31:56 10° WNW 17:34:27 85° SSW 17:41:38 10° ESE
CSL-04 DEB 4.3 17:31:06 10° NNE 17:35:15 80° ESE 17:39:16 10° SSW
Cosmos 2026 Rocket 4.0 17:29:18 10° S 17:35:21 60° E 17:41:30 10° NNE
Feng Yun 1-1 Rocket 4.2 17:30:37 10° SSE 17:36:07 89° ENE 17:41:48 10° NNW
SJ 16-02 2.8 17:33:17 10° SW 17:37:21 36° WNW 17:41:27 10° N
YAOGAN 1 2.8 17:35:58 10° SE 17:40:07 47° ENE 17:44:16 10° N
Cosmos 990 Rocket 4.2 17:35:33 10° SSW 17:40:45 76° WNW 17:45:57 10° NNE
Cosmos 1689 Rocket 3.2 17:41:34 24° ESE 17:41:34 24° ESE 17:43:35 10° SSE
Cosmos 1553 Rocket 4.2 17:35:26 10° N 17:41:41 51° ENE 17:47:48 10° SSE
Aureole 3 Rocket 2.4 17:39:19 10° N 17:42:32 73° E 17:46:30 10° SSE
Cosmos 1844 Rocket 3.8 17:37:21 10° WSW 17:42:41 42° NW 17:48:03 10° NNE
COSMOS 2406 3.2 17:38:29 10° NNW 17:44:19 90° WSW 17:50:05 10° SSE
Cosmos 2082 Rocket 2.4 17:39:09 10° NNW 17:44:43 50° NE 17:50:14 10° SE
HJ-1C 4.1 17:47:04 27° E 17:47:47 30° ENE 17:50:45 10° N
Cosmos 1703 3.7 17:44:16 10° SSW 17:48:06 62° WNW 17:51:59 10° N
Meteor 1-27 4.3 17:43:03 10° N 17:48:33 52° ENE 17:53:58 10° SSE
NOSS 3-1 (A) 4.2 17:41:11 10° NW 17:48:38 82° SW 17:57:19 10° SE
Cosmos 1825 Rocket 3.8 17:44:57 10° SSE 17:49:08 46° E 17:53:23 10° NNE
IRS-1C Rocket 4.0 17:44:22 10° SSE 17:49:37 87° ENE 17:54:55 10° NNW
X-37B 2.1 17:46:45 10° WSW 17:49:37 31° SSW 17:51:36 16° SE
deb Kosmos-1763 4.4 17:48:04 10° N 17:51:29 39° ENE 17:52:52 27° ESE
Cosmos 1812 Rocket 4.0 17:47:24 10° NNW 17:51:45 65° W 17:56:03 10° S
ISS -3.3 17:49:21 10° WNW 17:52:40 51° N 17:53:50 33° ENE
Okean O Rocket 3.8 17:51:52 10° SSW 17:55:43 29° W 17:59:35 10° NW
ATLAS 2AS CENTAUR R/B 4.3 17:49:39 10° WNW 17:56:04 27° N 18:00:54 15° NE
NOAA 15 4.5 17:51:55 10° SSE 17:57:10 73° ENE 18:02:27 10° NNW
ATLAS 5 CENTAUR R/B 3.9 17:55:18 10° NW 17:58:12 16° N 18:00:57 11° NNE
CZ-4 R/B 1.2 17:55:44 10° SSE 17:59:46 84° ENE 18:03:45 10° NNW
Iridium 4 Rocket 3.5 17:54:34 10° N 18:00:02 89° W 18:04:58 10° S
SKYMED 2 3.8 17:57:09 10° N 18:01:29 72° WNW 18:05:48 10° SSW
ERS-2 2.0 17:58:38 16° NNE 18:01:30 65° ESE 18:05:07 10° S
CSL-04 Rocket 3.8 17:58:52 10° SE 18:04:10 54° ENE 18:09:34 10° N
Okean-O 2.5 18:02:49 10° SSE 18:07:15 88° ENE 18:11:43 10° NNW
S3M 4.0 18:02:12 10° N 18:08:12 55° ENE 18:14:12 10° SSE
CZ-4C R/B 4.0 18:03:42 10° NW 18:08:35 23° N 18:11:46 17° NE
USA 234 3.9 18:05:52 23° ENE 18:09:37 44° N 18:15:44 10° WNW
Ariane Rocket 4.3 18:11:25 22° NE 18:11:25 22° NE 18:14:15 10° N
Cosmos 1340 3.9 18:08:10 10° SW 18:11:44 41° WNW 18:15:19 10° N
Cosmos 1346 Rocket 2.6 18:08:13 10° S 18:12:08 79° E 18:15:11 16° NNE
Cosmos 1655 Rocket 4.2 18:06:40 10° SSE 18:12:31 46° E 18:18:25 10° NNE
Cosmos 2278 Rocket 2.1 18:07:00 10° SSW 18:12:40 79° ESE 18:17:11 17° NNE
Cosmos 1953 Rocket 3.5 18:11:21 10° S 18:15:35 57° E 18:17:58 25° NNE
CZ-2C R/B 4.0 18:10:31 10° S 18:15:54 55° W 18:21:34 10° NNW
SWARM C 4.3 18:14:54 10° S 18:18:10 73° E 18:18:10 73° E
SWARM A 4.0 18:15:01 10° S 18:18:19 78° E 18:18:52 59° NNE
SAR-Lupe-4 3.4 18:17:51 31° NNE 18:19:27 86° ESE 18:23:02 10° SSW
Cosmos 2292 Rocket 3.5 18:15:45 10° S 18:20:23 53° E 18:20:40 52° E
Cosmos 44 Rocket 3.6 18:18:13 10° S 18:22:52 44° ESE 18:23:19 42° ESE
NOSS 2-1 (E) 4.5 18:22:31 10° WSW 18:25:32 31° NW 18:26:47 25° N
DMSP B5D1-3 4.4 18:23:04 10° NNE 18:28:11 75° ESE 18:33:17 10° S
ARGOS 3.1 18:23:58 10° SSE 18:29:20 89° ENE 18:34:46 10° NNW
Meteor 2-2 Rocket 4.4 18:23:52 10° N 18:29:45 56° ENE 18:34:20 17° SSE
Cosmos 1869 3.1 18:26:23 10° N 18:30:11 73° ENE 18:30:11 73° ENE
NOSS 2-2 (D) 4.4 18:26:28 10° NW 18:31:33 57° NE 18:33:29 41° E
PSLV R/B 4.3 18:28:34 10° N 18:32:47 66° WNW 18:36:56 10° SSW
SAR-Lupe-1 4.5 18:34:05 33° N 18:35:29 61° WNW 18:39:02 10° SSW
CZ-4B R/B 3.9 18:33:42 10° NNW 18:36:16 21° WNW 18:38:44 10° WSW
Cosmos 372 Rocket 4.1 18:31:06 10° SSW 18:36:19 76° WNW 18:39:58 20° NNE
Cosmos 468 4.4 18:32:22 10° NNW 18:37:39 90° SW 18:41:13 21° SSE
CZ-2C R/B 2.7 18:33:45 18° NNE 18:37:52 59° E 18:43:23 10° S
Cosmos 494 Rocket 3.8 18:36:28 10° NNW 18:41:38 70° ENE 18:42:29 58° ESE
Cosmos 2150 Rocket 3.8 18:40:23 10° SSW 18:45:30 69° ESE 18:45:58 65° ENE
Cosmos 1048 Rocket 4.0 18:41:29 10° NNW 18:46:38 78° WSW 18:49:36 26° SSE
Cosmos 909 Rocket 4.4 18:53:32 10° NNW 18:59:49 51° NE 19:00:09 51° NE
SL-08 RB Rocket 4.0 18:59:18 34° S 19:01:06 63° W 19:05:33 10° NNW
Cosmos 2221 4.3 19:01:54 10° N 19:03:41 24° N 19:03:41 24° N
H-2A R/B 3.7 19:03:35 10° SSW 19:08:06 32° W 19:12:45 10° NNW
Cosmos 1125 Rocket 4.0 19:04:57 10° SSW 19:08:41 48° SSW 19:08:41 48° SSW
Cosmos 1809 Rocket 4.5 19:04:25 10° SSW 19:10:33 78° W 19:16:46 10° N
Cosmos 2298 Rocket 4.2 19:07:35 10° SSW 19:12:53 69° WNW 19:13:35 61° NNW
Cosmos 2266 Rocket 4.0 19:08:28 10° SSW 19:14:43 80° W 19:20:53 10° N
NOSS 2-2 (C) 4.4 19:14:18 10° NW 19:19:40 82° SW 19:20:07 76° S
Cosmos 2082 Rocket 3.8 19:23:36 10° NW 19:28:36 32° WSW 19:33:33 10° SSW
ISS -0.5 19:26:17 10° WNW 19:26:49 14° WNW 19:26:49 14° WNW
ATLAS 5 CENTAUR R/B 4.2 19:40:59 10° NNW 19:42:29 16° NNW 19:42:29 16° NNW
Cosmos 2315 Rocket 4.4 19:39:45 10° NNW 19:45:50 57° W 19:46:34 54° WSW
ATLAS 2AS CENTAUR R/B 3.9 19:42:27 10° NW 19:48:21 33° N 19:48:21 33° N
USA 234 3.7 19:53:13 53° NNW 19:53:13 53° NNW 19:58:30 10° NW
Cosmos 2278 Rocket 4.1 19:52:52 10° W 19:57:25 24° NW 19:59:05 21° NNW
CZ-4C R/B 3.9 19:52:42 10° NW 19:56:58 33° N 19:56:58 33° N
USA 281 4.4 20:04:50 33° N 20:04:50 33° N 20:08:17 10° NNW
